Location: LDNL
(36.4545°S, 141.6685°E)
Time: 16:30:10
(UTC+10:00)

Hubble Space Telescope - Pass Details

Date: 05 July 2022
Orbit: 532 x 535 km, 28.5° (Epoch: 10 August)

Event Time Altitude Azimuth Distance (km) Brightness Sun altitude
Exits shadow 06:14:48 10° 322° (NW) 1,811 3.2 -17.8°
Reaches altitude 10° 06:15:07 10° 327° (NNW) 1,783 3.2 -17.7°
Maximum altitude 06:15:57 11° 338° (NNW) 1,749 3.3 -17.5°
Drops below altitude 10° 06:16:47 10° 350° (N) 1,781 3.5 -17.4°
Sets 06:20:54 0° 30° (NNE) 2,666 5.1 -16.6°
